Weather in Talakivka

Ukraine / Donetsk Region     47°11′07″N   37°43′18″E
temp.,
°C
wind,
m/s
gust,
m/s
humid.,
%
clouds,
%
prec.,
mm/h
press.,
hPa
HPBL,
m
23 june, wed
wed2300:00+23sw2262100 0.0 101134
03:00+21w11673 0.0 101211
06:00+22ese117054 0.0 101316
09:00+26wnw10555 0.1 1014397
12:00+30ene34495 0.0 10141203
15:00+32ene45383 0.0 10131398
18:00+31ene35510 0.0 1013383
21:00+26nnw34620 0.0 101258
24 june, thu
thu2400:00+24n496460 0.0 1011174
03:00+23ne4656100 0.0 1012123
06:00+22ene51170100 0.0 1012257
09:00+25se6876100 0.0 1013493
12:00+25se347889 0.0 1015393
15:00+29e335754 0.0 1014857
18:00+28e356191 0.0 1014458
21:00+24nne35585 0.0 101457
25 june, fri
fri2500:00+22n336918 0.7 101337
03:00+21n45676 0.7 101160
06:00+20ne367616 0.0 1011128
09:00+26ene45526 0.0 1011382
12:00+29ese574511 0.0 1012738
15:00+29ese345059 0.0 1011460
18:00+27s3462100 0.0 1012195
21:00+24nne226477 0.0 101112
26 june, sat
sat2600:00+22w116723 0.0 101011
03:00+22nw226894 0.0 101112
06:00+22nw336897 0.3 100947
09:00+27wsw115496 0.6 1010396
12:00+30sw4448100 0.0 1009928
15:00+32wnw3440100 0.0 10091400
18:00+26ssw576999 0.0 1009258
21:00+23sw477921 0.0 1009157
27 june, sun
sun2700:00+22w4107896 0.0 1009269
03:00+21wsw34895 0.3 101078
06:00+21wsw369011 0.1 1011199
09:00+26sw45695 0.1 1010538
12:00+29ssw55599 0.0 10111010
15:00+29ssw666271 0.0 1011847
18:00+27sw5766100 0.0 1010533
21:00+22sw598863 2.9 1011253